SKRGSKPE

Guest
Details From SKRG - JOSE MARIA CORDOVA
To SKPE - MATECANA
Flight Number -
Tags generated
Created
Modified
Stats Distance 84 nm / 155 km
Max Altitude 4,200 ft / 1,280 m
Waypoints 3
Social Downloads 16
Likes 0
Share

Download

Looking for another format? Having issues loading an existing format? Contact us
Advertisement - Login to hide

Notes

Basic altitude profile: - Ascent Rate: 2500ft/min - Ascent Speed: 250kts - Cruise Altitude: 29000ft - Cruise Speed: 315kts - Descent Rate: 1500ft/min - Descent Speed: 250kts Options: - Use NATs: yes - Use PACOTS: yes - Use low airways: yes - Use high airways: yes

Route

SKRG MATRO SKPE

ID Type Via Altitude (ft/m) Position (lat/lon) Dist (leg/tot) Name
O SKRG APT - 0 / 0 6.16453 / -75.42312 - / 0 nm JOSE MARIA CORDOVA
MATRO FIX - 4,200 / 1,280 5.14111 / -75.71056 63 / 63 nm
O SKPE APT - 0 / 0 4.81267 / -75.73952 19 / 83 nm MATECANA

Altitude Profile

Advertisement - Login to hide

SKRG

Details ICAO SKRG (MDE)
Name Jose Maria Cordova Intl
Region Colombia
Timezone America/Bogota (UTC-5.0)
Stats Elevation 7,027 ft / 2,142 m (AMSL)
Location 6.164900° -75.423100°
Runways 1
Magnetic Variation 7.264° W

METAR

SKRG 200300Z 02004KT 9999 VCSH SCT010 BKN080 15/14 Q1028 NOSIG RMK VCSH/N A3036

Decode

TAF

TAF SKRG 192230Z 2000/2024 VRB02KT 9999 BKN015 TEMPO 2001/2006 5000 DZRA BKN010 TEMPO 2009/2012 4000 BCFG BKN005 BECMG 2013/2015 09010KT TEMPO 2018/2023 DZ SCT020TCU TX23/2019Z TN13/2011Z

Decode

Departure Runways

ID Width Length Bearing (true/mag) Surface Threshold Overrun Markings Lighting
01 151 ft / 46 m 11,297 ft / 3,443 m 359.63° / 6.90° ASPHALT 0 ft / 0 m 0 ft / 0 m PREC-APP CENTERLINE EDGE THRESHOLD ALSF-I REIL-OMNI
19 151 ft / 46 m 11,297 ft / 3,443 m 179.63° / 186.90° ASPHALT 0 ft / 0 m 112 ft / 34 m PREC-APP CENTERLINE EDGE THRESHOLD REIL-OMNI

SKPE

Details ICAO SKPE (PEI)
Name Matecana Intl
Region Colombia
Timezone America/Bogota (UTC-5.0)
Stats Elevation 4,416 ft / 1,346 m (AMSL)
Location 4.812560° -75.739900°
Runways 1
Magnetic Variation 6.866° W

METAR

SKPE 200300Z VRB02KT 6000 -RA SCT010 BKN070 19/18 Q1020 RMK A3014

Decode

TAF

TAF SKPE 192230Z 2000/2024 VRB02KT 9999 SCT015 TEMPO 2006/2010 DZ BKN015 BECMG 2010/2012 3000 BR BKN010 BECMG 2015/2017 9999 NSW SCT015 TEMPO 2019/2021 SCT015TCU TEMPO 2021/2024 TS SCT015CB TX24/2019Z TN18/2011Z

Decode

Destination Runways

ID Width Length Bearing (true/mag) Surface Threshold Overrun Markings Lighting
08 148 ft / 45 m 6,302 ft / 1,921 m 72.25° / 79.12° ASPHALT 0 ft / 0 m 0 ft / 0 m PREC-APP EDGE THRESHOLD REIL-OMNI
26 148 ft / 45 m 6,302 ft / 1,921 m 252.25° / 259.12° ASPHALT 0 ft / 0 m 0 ft / 0 m PREC-APP EDGE THRESHOLD REIL-OMNI

Popular Alternatives